Location: Newark
(32.9167°N, 112.9667°W)
Time: 08:18:50
(UTC+00:00)

N. Korean satellite - Visible Passes

Search period start: 23 October 2019 00:00
Search period end: 02 November 2019 00:00
Orbit: 455 x 508 km, 97.2° (Epoch: 22 October)

Date Brightness Start Highest point End Pass type
(mag) Time Alt. Az. Time Alt. Az. Time Alt. Az.
23 Oct 9.8 01:31:55 10° SW 01:34:21 18° W 01:36:47 10° NW visible
23 Oct 8.1 13:01:14 10° NNE 13:04:44 42° E 13:08:14 10° S visible
24 Oct 9.8 12:36:41 10° NE 12:39:21 19° E 12:42:02 10° SE visible
26 Oct 10.6 01:51:23 10° W 01:51:52 10° W 01:52:21 10° W visible
27 Oct 9.4 01:23:38 10° SSW 01:26:25 23° W 01:29:14 10° NW visible
27 Oct 8.7 12:53:30 10° NNE 12:56:52 33° E 13:00:13 10° SSE visible
28 Oct 10.1 12:29:13 10° ENE 12:31:27 15° E 12:33:41 10° SE visible
30 Oct 10.1 01:42:09 10° SW 01:43:54 13° W 01:45:40 10° WNW visible
30 Oct 7.3 13:10:39 10° NNE 13:14:18 60° E 13:17:58 10° S visible
31 Oct 8.8 01:15:24 10° SSW 01:18:27 30° W 01:21:33 10° NW visible
31 Oct 9.2 12:45:48 10° NE 12:48:57 26° E 12:52:05 10° SSE visible
01 Nov 10.3 12:21:59 10° ENE 12:23:30 12° E 12:25:01 10° ESE visible
